Wind_Speed
11 2 19 18 4 1 8 6 7 3 10 15 15 9 4 12 9 21 20 8 8 9 2 5 7 11 11 9 9 9 14 19 17 15 17 20 22 22 21 22 22 20 20 19
5 3 10 8 5 4 9 6 4 2 10 8 8 4 9 6 10 15 20 15 10 4 3 3 7 10 11 9 9 8 8 9 10 14 17 16 14 17 21 22 22 21 22 23
5 2 10 7 4 5 3 8 5 5 4 3 8 5 8 15 21 12 10 8 6 9 8 5 8 10 10 9 8 6 5 5 5 6 7 9 11 14 15 14 13 12 13 15
2 5 14 11 5 4 4 5 6 8 5 4 5 4 13 19 19 15 20 10 10 8 6 5 10 12 12 10 7 5 4 4 3 4 6 7 9 9 8 7 8 8 8 9
3 15 9 12 8 3 3 5 5 3 4 2 1 2 4 5 15 24 23 10 9 9 8 9 11 13 12 11 8 6 5 3 2 2 3 3 4 5 7 8 9 9 9 9
3 5 1 4 3 3 6 6 7 5 3 1 5 5 5 7 7 4 8 9 10 9 8 7 11 14 13 10 9 8 6 5 3 2 1 1 2 3 4 3 3 3 3 5
7 4 2 3 7 4 5 6 2 2 0 4 2 6 11 3 6 6 8 7 8 7 9 9 9 13 13 10 8 7 6 7 5 4 3 2 2 1 1 0 1 2 2 4
4 6 2 3 4 6 3 3 4 5 4 3 3 6 5 5 6 6 5 5 6 9 8 10 12 16 14 11 9 8 7 6 5 4 5 5 4 3 2 2 2 3 4 5
4 4 2 5 2 2 4 3 3 6 3 3 4 6 8 7 8 6 7 6 9 9 10 8 11 15 15 12 10 9 7 6 5 4 3 3 2 1 1 2 3 4 5 5
1 6 3 3 2 5 3 5 2 3 3 4 4 5 5 5 6 6 6 7 6 7 7 7 10 15 14 12 11 10 8 6 5 4 2 2 1 2 2 3 3 4 4 5
2 3 3 3 3 5 2 2 2 3 4 4 2 5 5 5 7 8 7 6 7 10 8 7 10 14 15 13 12 11 8 6 5 3 2 1 0 1 2 2 3 3 4 4
2 4 3 2 3 3 3 5 5 4 4 1 2 6 2 6 8 6 5 6 6 5 7 7 11 15 15 14 13 11 9 7 5 4 2 1 1 2 2 2 2 2 2 2
6 2 4 1 1 2 4 4 3 4 3 6 4 5 2 6 1 1 6 7 7 7 7 6 8 12 15 15 13 11 9 7 6 4 3 3 3 3 3 3 3 4 4 5
5 3 5 7 5 3 6 8 10 6 6 4 9 6 6 5 3 3 5 6 7 7 8 7 6 9 13 14 14 11 9 8 7 6 4 3 2 3 3 2 3 5 6 7
3 3 3 3 2 3 3 10 14 20 19 10 6 15 13 8 6 7 7 7 8 8 8 8 7 8 14 14 14 13 11 10 9 7 6 5 3 0 1 2 4 5 5 9
2 2 3 2 3 5 5 8 13 18 17 17 21 21 6 4 3 4 8 8 7 7 8 8 7 11 15 19 18 15 14 12 10 9 6 5 5 3 3 4 6 8 9 11
2 4 3 3 3 3 6 9 13 10 13 16 15 25 4 6 7 9 9 10 10 8 8 9 9 13 17 20 19 18 15 12 11 9 8 5 5 6 6 6 8 10 11 13
4 3 2 2 2 1 5 2 4 11 6 14 11 5 7 8 6 6 5 8 8 7 8 7 11 14 13 14 15 14 14 13 12 10 8 6 7 8 9 9 10 11 12 12
2 4 2 2 3 7 1 1 5 5 5 8 15 13 6 3 2 4 6 7 7 8 7 11 14 14 12 14 16 16 15 13 12 11 9 9 10 11 11 11 11 11 11 11
4 4 3 1 1 4 4 3 3 3 4 3 5 9 7 6 4 4 5 5 4 7 10 13 14 13 14 15 17 17 16 14 13 11 11 10 11 12 12 12 12 12 11 12
2 2 4 3 3 7 6 5 3 3 4 4 3 6 6 5 4 1 6 4 6 8 10 12 13 13 14 15 17 15 14 14 12 11 12 12 13 13 13 12 12 14 13 11
6 5 3 3 3 6 4 2 3 5 3 3 4 2 5 3 3 4 5 5 6 8 9 10 12 10 11 14 16 16 15 12 12 12 13 13 14 13 13 12 14 13 11 10
3 6 4 7 5 5 4 6 3 3 3 3 2 1 4 4 3 5 5 5 4 7 7 8 9 9 11 14 17 17 14 13 13 13 14 14 14 13 13 14 15 13 11 10
4 4 3 1 4 7 7 5 5 4 3 0 2 3 5 4 5 5 5 4 4 8 9 10 11 12 13 15 17 16 13 14 14 15 15 15 15 15 14 14 15 13 12 11
3 4 3 5 6 6 7 7 3 3 4 3 2 2 2 7 4 3 4 4 7 9 11 12 13 16 16 15 16 16 16 16 16 16 16 18 18 17 16 16 16 15 13 12
5 6 4 5 6 3 5 3 4 6 5 6 5 3 3 4 4 2 2 1 2 3 4 8 13 14 14 16 17 17 17 18 18 19 19 20 21 21 18 18 17 15 13 12
Wind_Direction
213 146 188 187 124 108 117 114 137 186 180 185 196 202 201 166 236 275 272 246 238 234 216 231 201 196 201 207 207 203 211 216 219 221 226 233 237 242 246 250 255 261 264 265
178 192 199 127 205 107 121 131 153 79 166 171 198 175 231 185 216 233 251 257 240 231 208 190 180 173 177 177 183 188 184 191 212 226 233 238 246 249 255 257 259 263 264 264
184 259 166 150 170 125 92 140 160 143 112 8 148 196 196 231 224 236 239 237 244 209 206 189 180 166 156 152 150 155 161 178 199 215 224 234 245 252 256 259 264 264 263 262
30 167 163 161 136 126 103 155 138 142 132 184 173 252 214 221 234 231 245 214 224 210 187 186 180 164 157 151 148 150 153 179 211 242 254 257 261 267 267 269 262 264 266 268
77 159 171 162 157 138 149 143 119 95 92 117 309 216 215 145 229 234 238 234 216 207 190 192 183 158 148 142 138 138 138 139 138 203 226 249 260 266 270 272 274 279 279 276
332 147 26 141 91 85 147 88 53 50 73 297 205 182 241 193 216 265 235 225 210 186 190 167 164 151 139 134 130 131 130 111 110 130 136 192 253 273 279 295 305 312 303 289
127 143 114 77 92 16 75 78 70 62 250 223 306 204 249 253 218 221 247 244 218 185 163 163 161 156 145 139 129 123 112 97 95 97 97 93 101 136 150 142 336 335 333 321
151 137 65 2 122 157 127 145 151 173 189 234 341 237 256 237 293 247 245 236 204 172 169 174 168 160 150 141 134 130 119 108 101 93 90 92 100 97 78 41 355 344 338 327
125 77 117 66 56 75 173 184 165 104 7 61 230 292 286 290 276 295 278 180 185 180 170 160 157 157 150 146 145 144 138 129 125 109 96 83 75 60 11 342 327 323 326 323
129 98 8 90 145 43 109 157 110 5 138 255 289 279 240 294 305 277 259 236 176 144 140 151 157 161 159 156 155 155 153 149 142 142 136 108 67 29 359 344 333 327 325 326
111 84 112 110 198 182 123 141 72 127 153 194 285 263 214 246 271 278 245 195 186 162 170 163 161 168 164 160 160 159 160 159 161 166 160 157 18 351 342 341 347 342 337 342
200 115 118 175 302 287 231 189 155 143 227 26 140 268 187 261 275 265 204 172 165 170 169 160 165 166 165 167 169 171 171 176 175 174 171 147 90 58 46 47 46 43 36 24
181 137 109 54 257 333 226 173 131 115 85 200 168 257 357 317 310 157 171 177 173 165 156 152 161 176 177 176 177 178 177 178 173 178 171 142 108 79 65 72 81 89 90 85
97 122 154 183 200 138 199 206 205 186 227 162 229 284 290 309 328 242 210 189 171 168 172 173 172 193 187 186 185 184 183 185 183 182 175 152 115 81 50 43 96 94 102 94
104 141 130 258 244 140 241 206 202 213 227 220 244 233 248 262 246 227 216 192 169 176 182 184 185 191 191 188 190 190 191 190 193 187 174 157 125 153 126 103 97 104 106 95
14 122 114 274 180 203 247 224 213 224 229 247 253 272 236 271 221 210 200 179 192 196 193 189 184 186 191 195 196 194 190 189 193 186 178 167 159 163 149 142 129 125 113 108
98 132 106 263 344 324 290 215 200 218 223 225 231 242 161 232 233 231 199 187 195 198 191 191 190 189 199 200 198 197 193 187 188 191 186 179 175 168 165 157 144 131 125 122
123 99 95 215 24 288 237 177 198 215 224 218 252 260 215 228 238 258 213 185 201 198 195 193 185 196 200 198 195 192 190 187 187 190 188 182 183 175 169 160 148 142 139 131
118 126 116 156 196 286 332 132 163 179 275 215 236 252 235 237 27 295 199 196 207 198 193 198 196 189 186 189 191 188 186 190 192 191 197 197 188 179 171 162 159 155 149 146
89 98 118 121 160 249 242 302 182 154 289 219 221 254 212 156 205 248 194 146 127 150 164 162 166 170 177 183 186 185 189 190 199 202 206 202 191 184 175 169 169 166 161 148
156 179 177 191 238 285 254 263 159 96 249 313 269 260 188 191 204 224 117 92 124 137 144 156 164 173 182 183 186 189 193 205 210 206 202 192 189 185 180 170 170 161 158 156
174 158 190 137 213 272 194 92 182 225 291 289 315 260 188 162 98 100 96 112 119 125 135 156 162 176 184 189 190 195 204 206 200 196 192 190 186 182 181 181 173 172 170 169
218 187 183 180 211 235 226 222 238 200 240 320 310 40 147 126 122 136 128 137 148 154 160 176 183 186 194 198 202 204 208 196 194 193 193 191 190 189 191 192 177 180 190 198
245 172 209 122 243 234 248 247 234 217 232 246 102 132 132 128 144 145 148 155 166 174 186 194 194 203 208 206 209 216 206 198 198 200 199 197 196 196 203 204 197 196 204 214
209 142 203 256 282 282 270 234 214 191 151 135 84 78 121 133 140 154 167 177 193 190 192 197 210 220 221 214 215 213 208 202 203 208 208 206 206 206 215 213 211 217 228 238
186 194 174 230 226 192 249 324 187 173 186 175 144 109 51 82 111 97 82 38 3 312 259 226 232 234 234 225 223 217 215 212 210 206 210 211 212 213 218 225 226 231 238 241
Height
783 787 782 779 787 786 795 799 804 799 799 805 808 807 807 814 821 811 801 806 805 800 799 798 798 799 801 803 805 806 809 812 814 816 818 819 820 822 824 825 826 827 828 828
781 786 785 785 785 786 791 801 804 796 795 801 805 810 811 812 818 813 801 798 799 799 797 798 798 798 799 801 804 806 808 809 811 813 815 816 817 818 819 820 822 823 823 824
776 781 780 783 788 791 793 801 802 803 801 802 807 814 817 807 804 802 799 795 794 796 798 798 799 798 799 801 804 806 807 808 809 811 812 813 814 815 816 817 818 819 819 820
780 782 779 785 788 790 797 793 795 801 805 816 800 818 806 796 793 793 786 794 793 793 794 796 797 798 798 801 803 805 806 807 809 809 810 811 811 812 813 814 815 816 816 816
780 787 784 784 788 787 794 793 796 799 808 806 807 815 796 800 796 781 774 784 788 788 790 793 795 796 799 801 803 805 806 807 808 809 810 810 811 812 812 813 813 814 814 814
788 784 784 786 790 788 792 798 802 811 813 823 811 814 796 796 786 781 777 779 779 784 789 794 796 797 798 801 803 804 806 807 808 809 808 809 810 811 811 811 811 812 812 812
785 786 789 787 793 792 793 804 830 826 832 822 815 814 781 778 780 778 775 775 778 782 786 791 794 796 797 800 802 804 806 807 808 809 809 809 809 810 811 811 811 811 811 811
778 784 789 794 792 797 797 801 829 818 828 819 816 806 782 770 771 771 772 774 778 782 785 788 790 794 797 799 802 804 806 807 809 809 809 809 809 810 810 810 811 810 810 810
783 787 792 792 794 794 803 807 810 838 846 849 814 798 783 772 772 773 774 776 777 779 781 786 790 793 795 798 801 804 806 807 809 809 808 809 809 809 810 810 810 809 809 808
781 786 794 793 793 799 798 805 809 844 840 830 814 809 792 775 771 773 773 777 777 779 784 787 790 792 795 798 801 804 806 807 807 808 809 809 809 808 809 809 809 809 809 808
781 784 798 793 798 800 801 807 811 814 824 815 814 799 784 777 774 774 771 774 778 777 781 785 788 792 795 798 800 802 805 806 807 808 809 808 808 807 807 807 807 808 809 808
779 790 795 792 795 795 792 797 806 826 827 847 835 807 773 778 778 772 769 771 775 778 781 784 788 792 794 796 799 802 804 806 807 808 808 808 808 808 808 807 807 807 807 807
780 798 803 803 799 798 795 792 798 814 828 843 825 793 773 777 768 766 771 773 775 778 783 787 791 792 794 796 798 801 803 805 806 808 808 808 808 808 808 808 808 808 807 806
772 792 794 803 795 793 794 788 791 808 797 810 801 787 775 771 768 769 770 772 775 779 783 787 790 792 792 794 797 799 802 804 805 806 808 809 810 809 809 809 808 807 807 806
776 791 798 790 787 798 792 786 785 791 786 788 774 779 767 767 768 769 770 772 775 777 782 782 787 790 791 792 795 798 800 802 805 806 806 807 808 810 809 809 809 807 808 807
785 797 797 796 788 795 791 791 788 784 782 779 777 772 765 763 763 765 764 768 771 773 776 780 783 786 787 789 792 795 797 799 804 804 804 805 806 808 809 809 809 808 809 809
786 798 805 804 795 789 791 779 781 776 772 772 778 751 762 761 762 759 761 762 765 767 771 775 777 779 783 785 789 793 795 797 800 802 804 805 805 806 809 810 809 809 810 811
791 796 803 813 799 809 764 763 766 768 767 769 763 758 756 754 753 755 756 758 761 764 768 770 773 776 780 783 786 790 793 796 798 801 803 803 804 806 808 809 809 810 811 811
785 795 802 808 822 787 757 765 767 766 759 761 759 755 757 753 754 753 753 755 756 760 762 765 769 773 777 780 785 788 792 795 796 798 800 802 803 805 807 807 809 810 811 812
786 789 796 811 803 788 768 759 760 761 768 754 758 756 757 757 761 756 752 753 755 758 761 765 769 773 777 781 784 788 790 792 794 797 799 800 802 804 805 806 808 810 811 812
785 781 784 792 807 786 767 763 761 771 766 754 753 753 753 756 753 752 753 755 758 761 763 766 769 772 776 780 783 785 788 790 793 796 797 799 801 802 804 805 807 809 810 813
783 789 784 795 787 797 759 758 761 760 754 751 751 751 752 751 753 754 756 758 761 763 766 768 771 774 776 778 781 784 787 789 791 793 795 798 799 800 803 805 806 808 810 811
781 776 780 780 776 760 757 755 751 753 754 749 749 749 750 753 754 757 759 761 763 765 767 769 771 774 776 778 780 782 784 787 789 791 794 795 798 799 801 804 804 806 808 810
767 770 770 767 754 758 755 752 751 750 749 750 749 750 750 752 754 756 758 761 763 764 767 769 771 773 774 775 777 779 782 784 786 789 791 793 795 798 800 802 803 804 806 808
764 767 764 765 756 755 751 749 747 749 749 750 751 751 751 751 754 755 757 759 761 762 763 765 767 769 770 772 774 776 778 780 783 785 788 790 792 795 798 800 801 802 804 805
761 757 761 756 748 748 747 745 746 749 750 750 751 753 754 754 756 757 758 758 759 759 760 761 763 764 766 768 769 771 774 776 778 781 784 787 789 792 795 798 800 800 801 802